Location: Oshawa
(43.9000°N, 78.8670°W)
Time: 20:47:22
(UTC-04:00)

Transit 2A Rocket - Visible Passes

Search period start: 21 April 2018 00:00
Search period end: 01 May 2018 00:00
Orbit: 591 x 912 km, 66.7° (Epoch: 21 April)

Date Brightness Start Highest point End Pass type
(mag) Time Alt. Az. Time Alt. Az. Time Alt. Az.
21 Apr 7.6 02:42:52 10° N 02:45:32 15° NE 02:48:06 10° ENE visible
21 Apr 4.4 04:24:16 10° NNW 04:28:51 90° WSW 04:33:09 10° SSE visible
21 Apr 7.4 20:42:32 10° WSW 20:47:21 28° NW 20:51:50 10° NNE visible
22 Apr 8.0 02:02:15 10° NNE 02:02:33 10° NNE 02:02:52 10° NE visible
22 Apr 5.4 03:41:53 10° NNW 03:46:21 50° NE 03:50:34 10° SE visible
22 Apr 5.9 05:25:30 10° WNW 05:28:25 17° WSW 05:31:16 10° SSW visible
22 Apr 8.3 21:47:35 10° NW 21:48:34 10° NNW 21:49:32 10° NNW visible
23 Apr 6.4 02:59:40 10° NNW 03:03:44 30° NE 03:07:35 10° ESE visible
23 Apr 5.2 04:42:16 10° NW 04:46:15 32° WSW 04:47:34 26° SW visible
23 Apr 7.9 21:02:31 10° WNW 21:05:35 15° NW 21:08:32 10° N visible
24 Apr 7.1 02:17:38 10° N 02:20:58 19° NE 02:24:03 10° E visible
24 Apr 4.5 03:59:31 10° NW 04:03:50 59° WSW 04:03:50 59° WSW visible
25 Apr 7.5 01:35:58 10° N 01:38:05 13° NE 01:40:09 10° ENE visible
25 Apr 4.8 03:17:01 10° NNW 03:21:04 66° N 03:21:04 66° N visible
26 Apr 5.7 02:34:41 10° NNW 02:38:42 41° NE 02:38:42 41° NE visible
26 Apr 6.7 04:17:54 10° WNW 04:18:33 13° WNW 04:18:33 13° WNW visible
26 Apr 8.0 20:39:17 10° NW 20:41:07 12° NNW 20:42:54 10° NNW visible
27 Apr 6.5 01:52:32 10° NNW 01:56:22 25° NE 01:56:34 25° NE visible
27 Apr 6.4 03:34:52 10° NW 03:36:25 20° NW 03:36:25 20° NW visible
28 Apr 7.0 01:10:36 10° N 01:13:33 17° NE 01:14:34 16° NE visible
28 Apr 6.1 02:52:13 10° NW 02:54:26 28° NW 02:54:26 28° NW visible
29 Apr 7.4 00:29:14 10° NNE 00:30:38 11° NNE 00:32:00 10° NE visible
29 Apr 6.0 02:09:46 10° NNW 02:12:33 35° N 02:12:33 35° N visible
30 Apr 6.2 01:27:30 10° NNW 01:30:45 31° NNE 01:30:45 31° NNE visible
30 Apr 7.1 03:10:23 10° NW 03:10:37 11° WNW 03:10:37 11° WNW visible
